Date,TemperatureHighF,TemperatureAvgF,TemperatureLowF,DewpointHighF,DewpointAvgF,DewpointLowF,HumidityHigh,HumidityAvg,HumidityLow,PressureMaxIn,PressureMinIn,WindSpeedMaxMPH,WindSpeedAvgMPH,GustSpeedMaxMPH,PrecipitationSumIn
2013-2-1,22,17,11,16,9,2,92,70,58,30.07,29.48,12,4,20,0.00
2013-2-2,19,14,6,12,6,0,83,70,57,30.23,30.06,6,1,13,0.00
2013-2-3,24,18,10,14,12,8,91,79,64,30.07,29.75,3,0,8,0.00
2013-2-4,22,16,11,12,6,0,87,66,45,29.91,29.73,10,4,22,0.00
2013-2-5,23,15,6,12,4,1,81,65,48,30.05,29.90,6,1,13,0.00
2013-2-6,28,21,11,21,13,-3,92,72,46,30.31,29.94,10,2,19,0.00
2013-2-7,18,12,4,1,-2,-5,66,53,42,30.56,30.31,12,2,14,0.00
2013-2-8,15,14,12,12,8,-2,92,82,48,30.52,29.87,8,2,18,0.00
2013-2-9,15,10,7,13,6,-1,93,83,68,30.29,29.83,17,7,30,0.00
2013-2-10,27,15,4,9,1,-3,72,55,32,30.52,30.30,12,3,17,0.00
2013-2-11,33,25,20,32,17,2,98,77,39,30.37,29.65,6,2,15,0.00
2013-2-12,36,32,29,32,27,26,98,82,71,29.85,29.63,12,4,20,0.06
2013-2-13,33,28,25,26,21,19,87,76,59,29.86,29.75,7,2,12,0.00
2013-2-14,36,28,24,22,20,19,83,72,56,29.99,29.73,6,1,144,0.00
2013-2-15,44,34,26,29,24,20,85,68,51,29.98,29.90,9,2,105,0.00
2013-2-16,31,26,17,25,19,4,96,75,55,29.97,29.79,10,3,16,0.00
2013-2-17,17,12,7,5,2,-1,75,64,55,29.79,29.48,27,9,33,0.00
2013-2-18,21,13,5,0,-2,-5,73,52,32,30.16,29.72,19,6,29,0.00
2013-2-19,38,27,16,32,14,-3,97,59,34,30.19,29.59,6,1,249,0.04
2013-2-20,33,24,18,32,19,13,97,81,66,29.73,29.56,12,5,22,0.00
2013-2-21,22,17,13,16,11,6,92,78,62,30.30,29.73,17,6,21,0.00
2013-2-22,34,26,18,21,18,16,93,74,54,30.45,30.32,8,1,242,0.01
2013-2-23,29,27,24,28,25,19,97,90,78,30.33,29.97,6,2,224,0.00
2013-2-24,31,29,27,30,28,26,98,96,93,29.96,29.78,2,0,5,0.00
2013-2-25,32,29,26,29,28,25,97,95,91,30.25,29.92,0,0,0,0.00
2013-2-26,36,30,27,31,29,27,97,94,85,30.36,30.18,2,0,6,0.01
2013-2-27,32,30,27,32,29,27,98,97,93,30.18,29.66,5,0,10,0.00
2013-2-28,36,31,26,34,31,25,99,97,94,29.66,29.57,0,0,0,0.09